Location: Düngen
(52.0952°N, 10.0219°E)
Time: 18:27:03
(UTC+00:00)

PAYLOAD B - Pass Details

Date: 11 March 2026
Orbit: 847 x 870 km, 99.0° (Epoch: 20 April)

Event Time Altitude Azimuth Distance (km) Brightness Sun altitude
Exits shadow 19:28:54 17° 171° (S) 2,057 5.9 -20.6°
Maximum altitude 19:33:18 76° 255° (WSW) 894 4.3 -21.2°
Drops below altitude 10° 19:38:53 10° 342° (NNW) 2,506 7.2 -22.0°
Sets 19:41:16 0° 344° (NNW) 3,444 8.0 -22.4°
